ANGELS

Last updated on Sun Oct 06 2024 00:02:35 GMT+0000 (Coordinated Universal Time)

1 44876U 19092D 24279.47120069 .00024589 00000+0 84902-3 0 9996 2 44876 97.4707 108.3777 0008007 293.7608 66.2792 15.29914494266204
UTC large
Height (km)
Speed (km/s)
/
Latitude / Longitude
Inclination (degrees)
Orbital Period (minutes)
Azimuth
Elevation
Range (km)
Doppler Factor

Next 0 passes for location: London (51.5072 / 0.1276)

Sorry there are no passes over London.